EW9065 Weather Reports


Display with metric or nautical units.
time (UTC)temp
F
wind
direction
speed
MPH
gust
MPH
rain 1hr
in
rain 24hr
in
rain mn
in
humidity
%
barometer
mb
20221204013031 46 167 0.0 6.0 0.00 0.02 0.02 72 1008.0
20221204011530 47 125 0.0 5.0 0.00 0.02 0.02 76 1007.8
20221204010037 48 320 1.0 3.0 0.00 0.02 0.02 80 1007.6
20221204004526 48 255 0.0 2.0 0.00 0.02 0.02 85 1006.9
20221204003026 49 56 0.0 3.0 0.00 0.02 0.02 85 1006.6
20221204001525 51 121 1.0 8.0 0.00 0.02 0.02 90 1006.1
20221204000031 52 232 0.0 6.0 0.00 0.02 0.02 94 1005.3
20221203234540 52 17 0.0 0.0 0.00 0.02 0.02 94 1004.8
20221203233028 52 17 0.0 0.0 0.00 0.02 0.02 94 1004.6
20221203231523 52 351 0.0 0.0 0.00 0.02 0.02 94 1004.6
20221203230028 52 350 0.0 0.0 0.00 0.02 0.02 94 1004.7
20221203224536 53 92 0.0 0.0 0.00 0.02 0.02 94 1004.7
20221203223029 53 38 0.0 0.0 0.00 0.02 0.02 94 1004.7
20221203221518 53 80 0.0 0.0 0.00 0.02 0.02 94 1004.8
20221203220020 53 80 0.0 0.0 0.00 0.02 0.02 94 1005.0
20221203214514 54 294 0.0 0.0 0.00 0.02 0.02 94 1005.2
20221203213013 54 110 0.0 0.0 0.00 0.02 0.02 94 1005.5
20221203211514 54 199 0.0 0.0 0.00 0.02 0.02 94 1005.5
20221203210012 54 172 0.0 0.0 0.01 0.02 0.02 94 1005.6
20221203204516 54 94 0.0 1.0 0.01 0.02 0.02 94 1005.5
20221203203022 54 60 0.0 1.0 0.01 0.02 0.02 94 1005.7
20221203201514 54 323 0.0 1.0 0.01 0.02 0.02 94 1005.8
20221203200011 54 86 0.0 1.0 0.00 0.01 0.01 94 1006.0
20221203194506 54 162 0.0 0.0 0.01 0.01 0.01 94 1006.2
20221203193006 54 355 0.0 1.0 0.01 0.01 0.01 94 1006.5
20221203191503 54 300 0.0 1.0 0.01 0.01 0.01 94 1006.6
20221203190004 54 303 0.0 1.0 0.01 0.01 0.01 94 1006.9
20221203184600 54 141 0.0 0.0 0.00 0.00 0.00 94 1007.1
20221203183058 54 32 0.0 4.0 0.00 0.00 0.00 94 1007.4
20221203181602 54 321 0.0 5.0 0.00 0.00 0.00 93 1007.7
20221203180057 53 321 0.0 2.0 0.00 0.00 0.00 93 1008.0
20221203174554 53 280 0.0 5.0 0.00 0.00 0.00 93 1008.3
20221203173059 53 351 0.0 0.0 0.00 0.00 0.00 93 1008.7
20221203171548 53 48 0.0 5.0 0.00 0.00 0.00 93 1009.1
20221203170053 53 100 0.0 5.0 0.00 0.00 0.00 93 1009.5
20221203164606 53 313 0.0 1.0 0.00 0.00 0.00 92 1010.0
20221203163039 53 63 0.0 6.0 0.00 0.00 0.00 92 1010.4
20221203161537 52 360 0.0 1.0 0.00 0.00 0.00 92 1011.0
20221203160036 52 327 0.0 3.0 0.00 0.00 0.00 93 1011.5
20221203154527 50 68 0.0 0.0 0.00 0.00 0.00 94 1012.0
20221203153029 49 343 0.0 0.0 0.00 0.00 0.00 94 1012.6
20221203151519 48 268 0.0 2.0 0.00 0.00 0.00 94 1013.2
20221203150023 48 64 0.0 0.0 0.00 0.00 0.00 93 1013.9
20221203144516 47 46 0.0 0.0 0.00 0.00 0.00 93 1014.4
20221203143020 46 46 0.0 2.0 0.00 0.00 0.00 93 1014.8
20221203141506 45 67 0.0 1.0 0.00 0.00 0.00 93 1015.1
20221203140004 44 67 0.0 1.0 0.00 0.00 0.00 93 1015.5
20221203134605 43 67 0.0 1.0 0.00 0.00 0.00 93 1015.7
20221203133056 42 67 0.0 0.0 0.00 0.00 0.00 93 1016.0
20221203131553 41 67 0.0 0.0 0.00 0.00 0.00 93 1016.4
20221203130048 40 67 0.0 0.0 0.00 0.00 0.00 92 1016.8
20221203124547 40 67 0.0 0.0 0.00 0.00 0.00 92 1017.2
20221203123043 40 67 0.0 0.0 0.00 0.00 0.00 92 1017.3
20221203121541 39 67 0.0 0.0 0.00 0.00 0.00 92 1017.6
20221203120038 39 67 0.0 0.0 0.00 0.00 0.00 92 1018.1
20221203114542 38 67 0.0 0.0 0.00 0.00 0.00 92 1018.3
20221203113034 38 67 0.0 0.0 0.00 0.00 0.00 92 1018.5
20221203111532 37 67 0.0 0.0 0.00 0.00 0.00 91 1018.9
20221203110032 37 67 0.0 0.0 0.00 0.00 0.00 90 1018.9
20221203104529 37 67 0.0 0.0 0.00 0.00 0.00 90 1019.1
20221203103025 37 67 0.0 0.0 0.00 0.00 0.00 89 1019.6
20221203101522 37 67 0.0 0.0 0.00 0.00 0.00 89 1019.9
20221203100022 37 67 0.0 0.0 0.00 0.00 0.00 89 1020.3
20221203094520 37 67 0.0 0.0 0.00 0.00 0.00 89 1020.3
20221203093017 37 67 0.0 0.0 0.00 0.00 0.00 89 1021.0
20221203091514 37 67 0.0 0.0 0.00 0.00 0.00 89 1021.4
20221203090014 37 67 0.0 0.0 0.00 0.00 0.00 88 1021.6
20221203084511 37 67 0.0 0.0 0.00 0.00 0.00 88 1021.7
20221203083010 37 67 0.0 0.0 0.00 0.00 0.00 88 1022.2
20221203081509 37 67 0.0 2.0 0.00 0.00 0.00 89 1022.3
20221203080005 36 67 0.0 1.0 0.00 0.00 0.00 89 1022.6
20221203074502 36 67 0.0 3.0 0.00 0.00 0.00 89 1022.9
20221203073104 35 67 0.0 1.0 0.00 0.00 0.00 89 1023.1
20221203071557 35 67 0.0 0.0 0.00 0.00 0.00 88 1023.7
20221203070059 34 67 0.0 0.0 0.00 0.00 0.00 88 1023.8
20221203064558 34 67 0.0 0.0 0.00 0.00 0.00 88 1024.2
20221203063050 34 67 0.0 0.0 0.00 0.00 0.00 88 1024.0
20221203061548 33 67 0.0 0.0 0.00 0.00 0.00 88 1024.3
20221203060050 33 67 0.0 0.0 0.00 0.00 0.00 87 1024.5
20221203054544 33 67 0.0 0.0 0.00 0.00 0.00 85 1024.5
20221203053042 34 67 0.0 0.0 0.00 0.00 0.00 85 1024.6
20221203051542 34 67 0.0 0.0 0.00 0.00 0.00 84 1024.9
20221203050038 34 67 0.0 0.0 0.00 0.00 0.00 83 1025.0
20221203044537 33 67 0.0 0.0 0.00 0.00 0.00 83 1025.3
20221203043041 33 67 0.0 0.0 0.00 0.00 0.00 83 1025.3
20221203041537 33 67 0.0 0.0 0.00 0.00 0.00 82 1025.5
20221203040039 33 67 0.0 0.0 0.00 0.00 0.00 82 1025.5
20221203034536 33 67 0.0 0.0 0.00 0.00 0.00 82 1025.6
20221203033048 33 67 0.0 0.0 0.00 0.00 0.00 82 1025.8
20221203031535 33 67 0.0 0.0 0.00 0.00 0.00 83 1025.3
20221203030034 33 67 0.0 0.0 0.00 0.00 0.00 82 1025.5
20221203024534 33 67 0.0 0.0 0.00 0.00 0.00 82 1025.8
20221203023035 33 67 0.0 0.0 0.00 0.00 0.00 80 1026.1
20221203021534 33 67 0.0 0.0 0.00 0.00 0.00 79 1026.3
20221203020040 34 67 0.0 0.0 0.00 0.00 0.00 79 1026.5
20221203014600 34 67 0.0 0.0 0.00 0.00 0.00 79 1026.7